Wind_Speed
19 19 18 18 19 19 19 19 17 16 14 14 13 13 11 10 9 7 7 7 7 8 7 7 7 7 7 7 6 5 5 4 4 3 3 3 4 4 5 6 6 6 6 6 7 7 8 8 7
19 19 19 19 20 19 20 20 18 17 15 15 13 13 11 10 9 8 8 8 8 8 7 7 7 7 7 6 6 5 5 4 4 3 3 3 3 4 4 4 5 5 6 6 6 7 7 7 7
18 19 20 21 21 20 21 20 19 18 17 15 14 13 12 11 10 9 9 10 10 9 8 7 6 6 6 5 5 4 4 4 3 3 3 3 3 3 4 4 5 5 5 6 6 6 7 7 7
17 18 21 21 21 22 22 21 20 19 17 16 15 14 13 13 12 11 12 12 12 10 9 8 7 6 5 5 5 4 4 3 3 3 3 3 3 3 4 5 5 5 5 5 5 6 6 6 7
17 19 20 20 22 22 22 21 20 19 18 18 17 16 14 14 14 13 13 13 12 11 10 8 8 7 6 5 5 4 4 3 3 3 3 3 3 3 4 4 5 5 5 5 5 5 5 5 6
17 19 20 20 21 21 22 22 20 19 19 19 19 17 16 15 15 14 14 13 12 11 10 10 9 8 7 6 5 4 4 3 3 3 3 3 3 4 4 4 4 4 4 4 5 5 5 5 5
17 18 19 19 20 20 21 21 20 20 20 20 19 18 17 16 16 15 14 14 13 12 11 10 9 8 7 6 6 5 4 3 3 2 3 3 3 3 4 4 4 5 5 5 4 5 5 5 5
17 17 17 18 19 20 21 20 20 21 20 20 20 19 18 17 16 15 15 14 13 12 11 11 10 9 8 7 6 5 4 3 3 3 3 3 3 3 4 5 5 5 5 5 4 4 4 5 5
15 15 15 17 18 19 20 21 22 22 21 21 21 19 18 18 17 16 16 15 14 13 12 11 11 10 8 7 6 6 4 3 3 3 3 2 3 3 4 5 5 5 5 4 4 4 4 5 5
13 13 15 16 17 19 20 21 22 23 22 21 21 20 19 19 18 17 17 16 15 14 12 11 11 10 9 8 7 6 5 4 3 2 2 2 2 3 4 4 4 5 5 4 4 4 4 4 4
13 13 15 16 17 19 20 20 21 22 22 21 21 20 20 20 19 18 17 17 16 15 13 12 11 11 9 9 8 6 5 4 3 2 2 2 2 3 4 4 4 4 4 3 4 4 4 3 3
11 11 13 16 17 18 19 20 20 20 21 21 20 21 21 21 20 19 18 18 17 15 14 12 11 10 9 9 8 7 6 5 3 3 2 2 2 3 3 3 2 2 2 2 2 3 3 2 2
7 10 11 14 17 19 19 20 20 19 19 20 20 21 21 21 21 20 19 19 18 16 15 13 12 11 11 10 9 8 7 6 4 3 2 2 3 3 3 2 2 2 1 1 2 2 2 1 2
6 8 10 12 14 17 17 18 18 18 19 20 21 20 21 21 21 21 21 20 18 17 16 14 13 12 12 11 10 7 6 6 5 3 2 2 2 2 2 2 2 1 1 1 1 1 1 1 1
6 5 7 9 12 14 15 16 16 17 18 19 20 20 20 21 21 21 21 20 18 17 17 15 14 13 12 12 10 8 6 6 5 4 3 2 2 2 2 1 1 1 1 1 1 1 1 1 2
5 4 4 7 9 11 12 14 16 16 16 18 19 19 20 21 21 21 20 19 18 18 17 16 14 13 13 12 11 9 7 6 5 4 3 2 2 1 1 1 1 1 0 0 0 1 1 2 2
6 4 3 4 6 9 10 12 15 16 16 17 18 18 20 20 20 20 20 20 18 18 17 16 14 13 13 12 11 10 8 7 6 5 4 3 2 2 1 1 1 1 0 1 1 1 1 2 2
6 3 1 2 3 6 8 12 14 15 16 16 16 17 18 19 19 19 20 20 18 17 17 17 15 14 13 12 11 10 8 7 6 6 4 4 3 2 1 1 1 0 1 1 2 2 2 2 3
6 3 1 1 3 5 8 10 12 13 15 15 15 16 17 18 18 19 20 19 19 18 17 17 16 14 13 13 12 11 10 9 8 7 5 4 3 2 1 1 1 1 1 2 2 3 3 3 4
7 3 1 2 4 6 8 9 11 12 14 14 13 14 15 17 18 18 18 19 18 18 17 17 16 15 14 13 13 12 10 10 9 8 7 5 4 3 2 2 1 1 2 2 3 4 4 5 5
8 4 3 2 4 5 7 9 11 11 12 13 13 13 14 15 16 17 17 18 18 18 17 16 15 14 14 13 13 12 11 10 9 8 7 6 4 3 2 2 2 2 2 3 3 3 4 4 5
11 7 5 6 6 6 7 8 11 11 11 12 12 12 12 14 15 15 16 17 17 17 17 16 16 15 14 13 13 13 12 11 10 9 8 8 6 4 3 3 2 2 3 4 4 4 4 5 5
13 10 9 9 8 7 8 9 9 10 10 11 11 11 11 13 14 14 15 16 16 17 17 16 16 15 14 13 12 12 12 11 11 10 9 9 7 6 5 4 3 3 4 4 5 5 5 5 6
15 13 12 10 9 7 7 9 8 8 10 11 9 10 10 11 12 13 13 14 15 16 16 16 15 15 14 13 12 12 11 11 10 10 10 10 9 7 6 5 4 4 5 6 6 7 7 7 7
18 15 14 12 10 8 8 8 8 7 9 10 8 8 9 9 11 12 13 13 13 14 15 15 15 15 14 14 13 12 12 11 11 11 11 11 10 9 7 6 6 5 5 6 7 8 8 8 8
19 18 16 13 11 9 9 10 9 8 8 9 7 7 8 9 10 11 12 12 12 13 14 14 14 14 14 14 14 13 13 12 12 12 11 11 10 10 9 7 7 6 6 6 7 7 7 8 8
20 20 17 15 13 12 11 10 9 9 10 8 7 7 7 8 9 9 10 11 11 12 12 12 13 14 14 14 14 14 14 14 14 13 12 11 11 10 9 9 8 8 8 8 7 7 8 8 9
20 20 20 18 15 12 11 9 9 8 8 9 7 6 7 8 8 9 9 9 10 11 11 11 12 13 14 14 14 15 15 14 15 14 13 12 11 11 10 9 9 9 9 9 9 9 9 9 10
22 22 23 21 18 15 14 12 10 9 8 8 8 7 7 7 8 8 8 9 9 11 11 10 11 12 13 14 14 15 16 16 15 15 14 13 12 12 11 10 10 9 9 10 10 10 10 11 11
24 23 23 23 21 18 16 15 12 10 9 8 8 8 9 8 7 8 8 8 9 10 10 10 11 12 13 14 15 16 17 17 17 16 15 14 13 12 11 11 10 10 11 11 11 11 11 12 12
Wind_Direction
64 59 53 49 46 45 48 50 48 48 44 43 40 40 42 48 53 52 53 56 59 60 62 64 66 62 59 57 58 57 58 58 55 59 72 90 102 109 112 111 111 111 111 116 116 115 116 113 109
61 58 52 51 48 44 46 48 47 46 45 44 40 40 44 51 56 54 53 54 56 58 58 59 61 61 61 60 61 58 58 58 54 55 66 90 103 112 114 113 115 117 116 115 115 116 116 115 111
64 54 47 46 47 45 45 46 45 44 43 44 44 44 47 55 59 58 58 57 57 57 55 55 55 57 58 59 61 58 56 56 57 64 69 83 99 109 118 119 118 119 117 115 112 111 111 113 110
63 52 46 45 46 45 45 45 44 43 41 43 46 47 52 57 57 57 58 59 59 57 54 53 52 54 55 54 55 54 57 60 65 68 68 79 96 106 113 121 120 115 114 113 111 111 111 113 113
58 52 45 45 44 44 44 46 45 43 43 45 47 49 54 59 59 59 59 57 56 56 55 54 52 51 50 48 48 54 61 66 70 72 72 76 85 101 109 115 113 114 117 115 115 116 117 117 119
56 53 45 44 42 43 44 46 45 43 44 46 47 49 55 61 62 58 55 54 53 54 55 56 54 53 51 49 52 59 64 72 74 75 77 80 89 96 104 108 114 116 118 120 118 122 120 124 122
50 49 46 43 43 45 46 47 47 45 44 46 48 49 54 58 60 58 56 55 53 52 53 53 52 52 51 51 56 58 60 68 81 85 90 93 95 100 103 105 115 117 115 115 116 122 121 123 123
50 48 47 46 46 48 50 49 48 49 45 45 47 48 50 53 57 58 55 54 52 51 52 51 48 49 50 51 53 55 59 67 81 88 93 100 100 111 114 115 116 113 112 113 115 117 118 120 117
50 47 51 49 47 50 52 50 48 47 44 45 46 45 46 51 54 56 55 53 52 51 51 48 48 49 48 48 51 51 53 63 75 88 93 104 106 111 118 120 120 116 115 113 114 115 116 116 109
50 48 50 50 48 51 51 49 48 45 44 45 45 45 45 48 52 54 54 52 50 49 49 49 48 49 45 43 49 47 49 58 72 90 104 109 113 115 116 120 122 122 118 117 118 118 118 117 113
55 51 48 50 49 48 49 48 47 44 44 46 46 47 47 48 50 52 52 50 49 48 48 47 47 46 42 40 43 44 48 53 64 80 90 101 110 118 119 116 118 124 123 126 125 125 126 123 112
60 54 51 51 48 45 48 47 46 44 43 46 48 47 46 46 47 49 48 47 46 47 48 49 49 46 42 39 41 42 47 51 56 67 86 98 114 128 134 130 114 115 118 121 120 120 135 129 121
62 62 55 51 47 45 45 46 46 43 44 44 45 46 46 46 45 45 45 44 42 42 44 45 45 46 43 39 40 42 46 51 55 70 95 104 123 136 141 131 127 118 102 98 119 140 143 158 153
84 63 52 48 46 43 40 41 41 44 48 40 40 42 42 43 44 43 42 41 40 40 40 42 45 46 43 42 45 48 49 56 62 79 90 95 118 145 140 138 133 136 123 154 183 166 164 184 191
108 80 58 49 48 44 37 33 35 40 42 37 37 38 39 39 41 41 40 39 40 40 40 39 40 42 41 41 45 51 55 58 66 75 80 80 98 143 151 144 153 168 163 175 188 185 199 215 225
133 110 74 48 41 40 38 32 28 30 36 35 36 38 39 37 37 38 38 38 38 39 38 37 37 39 41 41 42 49 48 51 61 68 75 73 83 112 160 149 153 159 172 240 225 250 258 258 260
150 144 104 46 38 25 30 25 22 26 31 32 34 36 40 40 38 37 37 37 37 37 37 39 38 38 39 41 42 47 52 52 54 52 57 68 82 89 110 138 143 155 218 263 280 290 283 277 273
139 125 104 43 37 9 15 15 14 18 23 27 34 36 40 40 39 37 37 35 35 36 36 39 40 38 38 39 40 43 46 45 47 44 42 48 59 57 53 65 70 220 243 246 259 275 283 285 287
148 117 103 345 325 343 360 5 7 14 19 24 33 37 39 38 37 37 37 36 35 37 39 40 39 40 41 41 41 43 44 42 39 33 29 31 32 24 9 356 333 295 271 263 265 271 280 284 291
156 149 182 271 302 333 346 353 3 5 9 18 34 35 38 38 36 36 37 38 39 39 39 37 38 41 42 43 43 42 42 39 35 30 30 26 23 14 358 342 318 309 290 278 283 280 283 285 288
173 174 173 232 295 320 336 348 353 360 12 16 27 36 37 37 37 36 37 36 36 37 37 36 36 39 40 41 41 40 37 35 32 30 22 15 10 7 4 347 319 296 284 280 285 283 285 288 288
182 183 209 227 255 285 304 319 339 352 3 11 25 33 31 33 36 36 37 36 36 35 35 34 36 38 38 39 40 39 37 34 32 29 24 18 16 8 353 343 322 297 281 275 282 285 292 293 291
192 200 213 226 240 268 285 300 330 343 357 6 16 30 27 28 32 34 36 35 33 32 33 34 35 36 37 38 39 38 36 33 30 27 21 14 12 7 355 346 331 305 291 284 281 280 285 287 289
203 207 213 221 229 250 278 292 308 328 351 360 15 24 22 27 31 31 34 34 31 29 31 33 33 34 34 35 34 33 31 28 25 21 16 9 9 5 356 346 328 308 297 293 286 282 284 284 288
209 210 214 215 226 248 273 290 300 321 346 359 13 20 25 24 31 30 29 30 29 28 29 32 31 31 31 32 32 29 26 23 19 13 8 6 6 360 356 349 337 323 311 305 295 291 286 286 289
211 212 214 222 234 245 266 287 297 316 329 344 1 18 23 20 24 27 26 25 26 25 27 29 28 28 28 29 28 25 21 18 13 8 5 4 1 356 352 346 340 328 312 311 302 298 292 291 290
214 218 216 224 234 244 257 276 284 305 313 323 342 6 11 7 11 19 19 16 19 20 21 23 23 23 25 26 24 21 16 13 9 6 4 360 357 354 351 346 340 331 319 311 307 295 291 291 290
221 221 220 223 233 246 256 270 286 301 316 325 331 340 355 359 0 8 9 9 12 15 16 18 17 17 18 18 17 14 10 6 3 1 359 356 352 350 347 343 338 334 328 319 310 306 299 295 292
220 222 223 225 231 244 257 269 283 290 306 312 319 326 340 349 351 357 359 360 2 7 8 12 15 12 10 11 11 9 6 3 359 355 353 350 348 344 342 341 338 333 329 326 317 306 299 292 290
219 220 223 227 230 239 253 266 281 289 302 309 318 325 326 331 339 342 345 351 354 359 2 4 7 4 3 4 5 5 3 1 358 354 349 345 342 341 339 338 335 333 330 326 322 314 307 300 296
Height
5917 5916 5916 5916 5914 5912 5910 5909 5908 5907 5906 5904 5902 5901 5901 5900 5900 5900 5897 5895 5894 5893 5893 5893 5892 5892 5892 5892 5892 5892 5891 5891 5891 5891 5891 5891 5891 5890 5890 5890 5890 5890 5890 5890 5890 5890 5890 5891 5891
5920 5919 5919 5918 5915 5914 5913 5911 5910 5909 5907 5905 5904 5903 5902 5901 5900 5898 5897 5896 5895 5894 5894 5894 5893 5893 5893 5893 5892 5892 5892 5892 5892 5892 5892 5892 5891 5891 5891 5891 5891 5891 5891 5891 5891 5891 5891 5892 5891
5923 5922 5922 5919 5917 5916 5915 5913 5912 5910 5909 5907 5906 5905 5903 5902 5900 5899 5898 5897 5896 5896 5895 5895 5894 5894 5893 5893 5893 5893 5893 5893 5893 5893 5892 5892 5892 5892 5892 5892 5892 5892 5892 5892 5892 5892 5892 5892 5892
5926 5925 5924 5922 5919 5918 5917 5915 5914 5912 5911 5909 5908 5906 5905 5903 5901 5900 5899 5898 5897 5897 5896 5896 5895 5895 5894 5894 5894 5893 5893 5893 5893 5893 5893 5893 5893 5893 5892 5892 5892 5893 5893 5893 5893 5893 5893 5893 5894
5929 5927 5926 5924 5922 5921 5919 5918 5917 5915 5913 5911 5909 5908 5906 5905 5903 5902 5900 5899 5899 5898 5898 5897 5896 5895 5895 5894 5894 5894 5894 5894 5894 5894 5894 5893 5893 5893 5893 5893 5893 5894 5894 5894 5894 5894 5894 5895 5895
5931 5929 5929 5927 5925 5924 5922 5921 5920 5918 5916 5913 5911 5910 5908 5907 5905 5903 5902 5901 5900 5900 5899 5898 5897 5896 5895 5895 5895 5894 5894 5894 5894 5894 5894 5894 5894 5894 5894 5894 5894 5894 5895 5895 5895 5895 5895 5896 5895
5934 5932 5931 5930 5928 5927 5925 5924 5922 5920 5918 5916 5913 5912 5910 5908 5907 5905 5904 5903 5902 5901 5900 5899 5898 5897 5896 5896 5895 5895 5895 5895 5895 5895 5894 5894 5894 5894 5894 5894 5895 5895 5895 5895 5895 5896 5896 5896 5896
5934 5935 5933 5933 5931 5930 5928 5927 5925 5922 5920 5918 5916 5914 5912 5911 5909 5907 5906 5904 5903 5902 5901 5900 5899 5898 5897 5896 5896 5895 5895 5895 5895 5895 5895 5895 5895 5895 5895 5895 5895 5896 5896 5896 5896 5896 5896 5897 5897
5938 5939 5937 5936 5935 5933 5931 5930 5928 5925 5923 5920 5918 5916 5915 5913 5911 5909 5908 5906 5905 5903 5902 5901 5900 5899 5898 5897 5896 5896 5895 5895 5895 5895 5895 5895 5895 5895 5895 5896 5896 5896 5896 5897 5897 5897 5897 5897 5897
5941 5941 5940 5939 5937 5935 5934 5932 5930 5927 5925 5923 5921 5919 5916 5914 5913 5911 5910 5908 5906 5905 5903 5902 5901 5899 5898 5898 5897 5896 5896 5895 5895 5895 5895 5895 5895 5896 5896 5896 5897 5897 5897 5897 5897 5897 5897 5898 5898
5942 5942 5942 5941 5939 5938 5937 5935 5932 5930 5928 5926 5924 5922 5919 5917 5915 5913 5911 5910 5908 5906 5905 5903 5902 5900 5899 5898 5898 5897 5896 5896 5896 5895 5895 5895 5896 5896 5897 5897 5897 5897 5897 5897 5898 5898 5898 5898 5897
5945 5945 5944 5942 5941 5941 5940 5938 5936 5934 5932 5929 5927 5924 5921 5919 5917 5915 5913 5912 5910 5908 5906 5905 5904 5902 5900 5899 5898 5897 5897 5896 5896 5896 5896 5896 5896 5897 5897 5897 5897 5898 5898 5898 5897 5898 5898 5898 5898
5946 5946 5946 5945 5944 5943 5942 5941 5939 5937 5935 5933 5930 5927 5924 5922 5919 5917 5915 5913 5911 5909 5908 5906 5905 5903 5901 5900 5898 5897 5897 5897 5896 5896 5897 5897 5897 5897 5897 5897 5897 5897 5898 5898 5898 5898 5898 5898 5898
5948 5948 5947 5947 5946 5945 5945 5944 5943 5940 5936 5935 5932 5930 5927 5924 5921 5919 5917 5915 5913 5911 5909 5907 5905 5904 5902 5901 5899 5898 5897 5897 5897 5897 5897 5897 5897 5897 5897 5897 5897 5897 5898 5898 5898 5898 5898 5898 5898
5949 5949 5949 5948 5948 5947 5947 5946 5944 5942 5939 5938 5935 5932 5929 5926 5924 5921 5919 5917 5915 5912 5910 5908 5906 5904 5903 5902 5900 5899 5898 5898 5897 5897 5897 5897 5897 5898 5898 5897 5897 5897 5897 5898 5898 5898 5898 5898 5898
5950 5951 5950 5950 5950 5950 5950 5948 5946 5944 5942 5940 5937 5934 5931 5929 5926 5924 5921 5919 5916 5914 5912 5909 5907 5906 5904 5903 5901 5900 5899 5898 5898 5898 5898 5898 5897 5897 5897 5898 5897 5897 5897 5898 5898 5898 5898 5898 5898
5950 5951 5951 5951 5951 5951 5950 5949 5948 5945 5943 5941 5938 5936 5933 5931 5929 5926 5923 5920 5918 5916 5913 5911 5909 5907 5906 5904 5903 5901 5900 5899 5899 5898 5898 5897 5897 5897 5897 5897 5897 5897 5897 5897 5897 5897 5897 5897 5897
5950 5951 5951 5951 5951 5951 5951 5950 5949 5946 5944 5942 5940 5937 5935 5933 5931 5928 5925 5922 5920 5917 5915 5913 5911 5909 5907 5906 5904 5902 5901 5900 5899 5898 5898 5897 5897 5897 5897 5897 5897 5897 5897 5897 5897 5897 5896 5896 5896
5950 5951 5951 5951 5951 5951 5951 5950 5949 5948 5946 5944 5941 5939 5936 5935 5933 5930 5927 5924 5922 5919 5917 5915 5913 5911 5909 5907 5905 5904 5902 5901 5900 5899 5898 5898 5897 5897 5897 5897 5896 5896 5896 5896 5896 5896 5896 5895 5895
5950 5951 5951 5950 5951 5951 5950 5949 5949 5948 5947 5945 5942 5940 5938 5936 5934 5932 5929 5926 5924 5921 5919 5917 5915 5913 5911 5909 5907 5905 5904 5902 5901 5900 5899 5898 5897 5897 5896 5896 5896 5896 5895 5895 5895 5895 5894 5894 5893
5949 5950 5951 5951 5950 5950 5950 5950 5949 5949 5948 5946 5943 5941 5940 5938 5936 5933 5931 5928 5926 5923 5921 5919 5917 5914 5912 5910 5908 5907 5905 5903 5902 5900 5899 5898 5897 5897 5896 5896 5895 5895 5894 5894 5893 5893 5893 5892 5892
5948 5949 5950 5951 5950 5950 5950 5950 5950 5948 5948 5946 5944 5942 5941 5939 5937 5935 5932 5930 5927 5925 5923 5921 5918 5916 5914 5911 5910 5908 5906 5904 5903 5901 5900 5899 5897 5896 5895 5895 5894 5894 5893 5893 5892 5892 5891 5891 5890
5946 5948 5949 5949 5950 5950 5950 5950 5950 5948 5947 5946 5944 5943 5941 5940 5938 5935 5933 5931 5929 5927 5924 5922 5920 5917 5915 5913 5911 5909 5907 5906 5904 5902 5900 5899 5897 5896 5895 5894 5893 5892 5892 5891 5891 5890 5889 5889 5888
5944 5946 5947 5948 5949 5950 5950 5949 5949 5948 5947 5945 5943 5942 5942 5940 5938 5936 5934 5932 5930 5928 5926 5923 5921 5919 5917 5914 5912 5910 5908 5907 5905 5903 5901 5899 5897 5895 5894 5893 5892 5891 5890 5889 5889 5888 5888 5887 5886
5942 5944 5946 5947 5947 5948 5948 5948 5948 5947 5946 5945 5943 5943 5941 5940 5939 5937 5934 5933 5931 5929 5927 5924 5922 5920 5918 5916 5913 5911 5909 5907 5905 5903 5901 5898 5896 5895 5893 5892 5890 5889 5888 5887 5886 5886 5885 5884 5884
5939 5942 5944 5945 5945 5946 5946 5946 5947 5945 5944 5944 5943 5943 5941 5940 5939 5937 5935 5933 5932 5930 5928 5926 5923 5921 5919 5917 5914 5912 5910 5908 5905 5903 5900 5898 5896 5894 5892 5890 5889 5887 5886 5885 5884 5883 5883 5882 5881
5936 5938 5940 5942 5942 5943 5943 5943 5943 5942 5942 5942 5942 5941 5940 5940 5938 5937 5935 5934 5932 5930 5928 5926 5924 5922 5920 5917 5915 5913 5910 5908 5905 5902 5900 5898 5895 5893 5891 5890 5888 5886 5884 5884 5882 5881 5880 5879 5878
5933 5935 5937 5938 5939 5940 5940 5940 5941 5941 5941 5941 5940 5939 5939 5938 5937 5936 5935 5934 5932 5931 5928 5926 5924 5922 5920 5918 5915 5913 5910 5908 5905 5902 5899 5897 5894 5892 5890 5888 5886 5885 5883 5882 5880 5879 5878 5877 5876
5929 5931 5933 5935 5936 5937 5937 5940 5939 5939 5939 5939 5939 5938 5938 5937 5937 5936 5935 5933 5932 5930 5928 5926 5924 5922 5920 5918 5915 5913 5910 5907 5904 5901 5898 5896 5893 5891 5889 5887 5885 5883 5881 5880 5878 5876 5875 5874 5873
5923 5927 5929 5932 5933 5934 5935 5937 5936 5936 5936 5937 5937 5937 5937 5936 5935 5935 5934 5932 5931 5929 5927 5926 5924 5922 5920 5918 5915 5912 5909 5906 5903 5900 5897 5894 5892 5890 5887 5885 5883 5882 5880 5878 5876 5874 5872 5871 5869